Pittsfield, MA

9:39 AM EDT on September 19, 2019 (GMT -0400)
Pittsfield Municipal

Weather History for KPSF - August, 2019

Change the Weather History Date:

Thursday, August 22, 2019

  Actual Average Record
Temperature  
Mean Temperature 73 °F 66 °F  
Max Temperature 82 °F 77 °F 94 °F (1937)
Min Temperature 64 °F 55 °F 42 °F (1925)
Degree Days  
Heating Degree Days 0 2  
Month to date heating degree days 2 23  
Since 1 June heating degree days 69 155  
Since 1 July heating degree days 2 54  
Cooling Degree Days 8 3  
Month to date cooling degree days 109 78  
Year to date cooling degree days 385 255  
Since 1 June cooling degree days 379 242  
Growing Degree Days 23 (Base 50)    
Moisture  
Dew Point 64 °F    
Average Humidity 85    
Maximum Humidity 100    
Minimum Humidity 57    
Precipitation  
Precipitation 0.03 in 0.14 in 1.73 in (2017)
Month to date precipitation 1.62 2.98  
Year to date precipitation 27.76 28.67  
Sea Level Pressure  
Sea Level Pressure 29.85 in    
Wind  
Wind Speed 2 mph ()    
Max Wind Speed 13 mph    
Max Gust Speed 17 mph    
Visibility 4.6 miles    
Events Fog , Rain    
T = Trace of Precipitation, MM = Missing Value Source: Averaged Metar Reports

Daily Weather History Graph

Daily Weather History Graph

Search for Another Location

Airport or City:

Astronomy

Aug. 22, 2019 Rise Set
Actual Time 6:07 AM EDT 7:44 PM EDT
Civil Twilight 5:37 AM EDT 8:13 PM EDT
Nautical Twilight 5:01 AM EDT 8:49 PM EDT
Astronomical Twilight 4:23 AM EDT 9:27 PM EDT
Moon 11:24 PM EDT (8/22) 12:48 PM EDT (8/22)
Length of Visible Light 14h 35m
Length of Day
13h 36m
Waning Gibbous, 60% of the Moon is Illuminated
Aug 22
Waning Gibbous
Aug 23
Last Quarter
Aug 30
New
Sep 5
First Quarter
Sep 14
Full

Hourly Weather History & Observations

Time (EDT) Temp. Heat Index Dew Point Humidity Pressure Visibility Wind Dir Wind Speed Gust Speed Precip Events Conditions
12:16 AM 64.0 °F - 62.1 °F 93% 29.89 in 1.8 mi Calm Calm - N/A   Partly Cloudy
12:35 AM 64.9 °F - 63.0 °F 93% 29.89 in 3.0 mi West 3.5 mph - N/A   Mostly Cloudy
12:54 AM 64.9 °F - 63.0 °F 93% 29.81 in 6.0 mi WSW 5.8 mph - N/A   Mostly Cloudy
12:57 AM 64.9 °F - 64.0 °F 97% 29.88 in 1.8 mi SW 4.6 mph - N/A   Overcast
1:07 AM 64.9 °F - 64.0 °F 97% 29.88 in 0.5 mi SSW 3.5 mph - N/A Fog Fog
1:16 AM 64.0 °F - 63.0 °F 96% 29.87 in 0.2 mi Calm Calm - N/A Fog Fog
1:25 AM 64.0 °F - 63.0 °F 96% 29.87 in 0.8 mi WNW 3.5 mph - N/A   Mist
1:40 AM 64.9 °F - 64.0 °F 97% 29.87 in 0.2 mi Calm Calm - N/A Fog Fog
1:49 AM 64.4 °F - 64.4 °F 100% 29.87 in 0.2 mi Calm Calm - N/A Fog Fog
1:54 AM 64.9 °F - 64.0 °F 97% 29.79 in 0.2 mi Calm Calm - N/A Fog Fog
2:54 AM 64.0 °F - 63.0 °F 96% 29.78 in 0.2 mi Calm Calm - N/A Fog Fog
3:12 AM 64.0 °F - 63.0 °F 96% 29.86 in 0.5 mi Calm Calm - N/A Fog Fog
3:20 AM 64.0 °F - 63.0 °F 96% 29.85 in 0.2 mi Calm Calm - N/A Fog Fog
3:54 AM 64.0 °F - 63.0 °F 96% 29.77 in 0.2 mi Calm Calm - N/A Fog Fog
4:30 AM 64.0 °F - 62.1 °F 93% 29.83 in 0.2 mi Calm Calm - N/A Fog Fog
4:54 AM 64.0 °F - 63.0 °F 96% 29.77 in 0.2 mi Calm Calm - N/A Fog Fog
5:54 AM 64.0 °F - 62.1 °F 93% 29.78 in 0.2 mi Calm Calm - N/A Fog Fog
6:00 AM 64.0 °F - 63.0 °F 96% 29.85 in 1.0 mi Calm Calm - N/A   Mist
6:12 AM 64.0 °F - 63.0 °F 96% 29.86 in 3.0 mi Calm Calm - N/A   Overcast
6:20 AM 64.0 °F - 63.0 °F 96% 29.86 in 1.8 mi Calm Calm - N/A   Overcast
6:42 AM 64.9 °F - 63.0 °F 93% 29.87 in 2.5 mi Calm Calm - N/A   Overcast
6:52 AM 64.4 °F - 62.6 °F 94% 29.87 in 0.8 mi Calm Calm - N/A   Overcast
6:53 AM 64.9 °F - 63.0 °F 93% 29.81 in 0.8 mi Calm Calm - N/A   Overcast
7:10 AM 64.9 °F - 63.0 °F 93% 29.88 in 0.2 mi Calm Calm - N/A Fog Fog
7:54 AM 66.9 °F - 64.9 °F 93% 29.82 in 0.2 mi Calm Calm - N/A Fog Fog
8:21 AM 66.9 °F - 66.0 °F 97% 29.89 in 0.8 mi Calm Calm - N/A   Mist
8:32 AM 68.0 °F - 66.9 °F 96% 29.89 in 1.8 mi Calm Calm - N/A   Overcast
8:54 AM 69.1 °F - 68.0 °F 96% 29.82 in 1.5 mi ESE 3.5 mph - N/A   Overcast
8:58 AM 70.0 °F - 68.0 °F 93% 29.89 in 2.0 mi Calm Calm - N/A   Mostly Cloudy
9:06 AM 70.0 °F - 69.1 °F 97% 29.89 in 8.0 mi Calm Calm - N/A   Mostly Cloudy
9:14 AM 70.0 °F - 68.0 °F 93% 29.90 in 10.0 mi Calm Calm - N/A   Mostly Cloudy
9:54 AM 75.9 °F - 68.0 °F 76% 29.83 in 10.0 mi WNW 9.2 mph - N/A   Mostly Cloudy
10:54 AM 77.0 °F - 66.9 °F 71% 29.83 in 10.0 mi WNW 9.2 mph - N/A   Scattered Clouds
11:14 AM 77.0 °F - 66.0 °F 69% 29.91 in 10.0 mi WNW 8.1 mph - N/A   Mostly Cloudy
11:29 AM 77.0 °F - 66.9 °F 71% 29.92 in 10.0 mi West 9.2 mph - N/A   Overcast
11:39 AM 75.9 °F - 66.0 °F 71% 29.91 in 10.0 mi WNW 8.1 mph - N/A   Overcast
11:54 AM 79.0 °F - 66.0 °F 64% 29.83 in 10.0 mi WNW 6.9 mph - N/A   Mostly Cloudy
12:54 PM 79.0 °F - 64.9 °F 62% 29.82 in 10.0 mi WNW 9.2 mph - N/A   Scattered Clouds
1:54 PM 81.0 °F 82.7 °F 64.9 °F 58% 29.81 in 10.0 mi WNW 9.2 mph 16.1 mph N/A   Mostly Cloudy
2:54 PM 78.1 °F - 64.0 °F 62% 29.82 in 10.0 mi WNW 8.1 mph - N/A   Mostly Cloudy
3:54 PM 79.0 °F - 63.0 °F 58% 29.80 in 10.0 mi West 10.4 mph - N/A   Overcast
4:54 PM 73.0 °F - 66.0 °F 79% 29.82 in 3.0 mi WSW 6.9 mph - 0.02 in Rain Light Rain
5:54 PM 77.0 °F - 66.9 °F 71% 29.81 in 10.0 mi WSW 4.6 mph - 0.01 in   Overcast
6:54 PM 73.0 °F - 62.1 °F 68% 29.83 in 10.0 mi NW 4.6 mph - N/A   Scattered Clouds
7:54 PM 70.0 °F - 59.0 °F 68% 29.85 in 10.0 mi West 4.6 mph - N/A   Scattered Clouds
8:54 PM 70.0 °F - 55.9 °F 61% 29.86 in 10.0 mi Variable 3.5 mph - N/A   Overcast
9:54 PM 69.1 °F - 54.0 °F 58% 29.85 in 10.0 mi WNW 8.1 mph - N/A   Overcast
10:54 PM 66.9 °F - 55.0 °F 66% 29.86 in 10.0 mi WNW 6.9 mph - N/A   Mostly Cloudy
11:54 PM 66.0 °F - 53.1 °F 63% 29.88 in 10.0 mi WNW 5.8 mph - N/A   Overcast